Regional Weather Roundup
Issued by NWS Boston, MA

Home | Current Version | Previous Version | Text Only | Print | Product List | Glossary On
Versions: 1 2 3 4 5 6 7 8 9 10 11 12 13 14 15 16 17 18 19 20 21 22 23 24 25 26 27
000
ASUS41 KBOX 261010
RWRBOX

REGIONAL WEATHER ROUNDUP
NATIONAL WEATHER SERVICE TAUNTON MA
600 AM EDT MON JUN 26 2017

NOTE:  "FAIR" INDICATES FEW OR NO CLOUDS BELOW 12,000 FEET WITH NO
SIGNIFICANT WEATHER AND/OR OBSTRUCTIONS TO VISIBILITY.

MAZALL-261100-
EASTERN MASSACHUSETTS

CITY           SKY/WX    TMP DP  RH WIND       PRES   REMARKS
BOSTON         PTCLDY    63  53  70 W10       29.95R
BEVERLY        CLEAR     58  56  93 SW3       29.93R
LAWRENCE       CLEAR     61  55  81 W7        29.96R
BEDFORD        CLEAR     56  52  86 W5        29.94R
BLUE HILL        N/A     57  53  86 W10       29.96R
NORWOOD        CLEAR     54  53  97 SE3       29.96R
MARSHFIELD     CLEAR     59  55  88 CALM      29.95R
PLYMOUTH       PTCLDY    60  54  80 W6        29.97R
TAUNTON        PTCLDY    56  54  93 W3        29.97R
NEW BEDFORD    PTCLDY    56  54  93 CALM      29.97R
$$

MAZALL-261100-
CAPE COD AND THE ISLANDS

CITY           SKY/WX    TMP DP  RH WIND       PRES   REMARKS
FALMOUTH       MOCLDY    59  54  82 W7        29.97R
HYANNIS        PTCLDY    60  55  83 CALM      29.95R
CHATHAM        MOCLDY    62  60  93 CALM      29.96R
PROVINCETOWN   MOCLDY    63  55  75 W10       29.95R
NANTUCKET      PTCLDY    64  61  90 NW6       29.96R
MARTHAS VNYRD  PTCLDY    53  51  93 W3        29.97R
$$

MAZALL-261100-
CENTRAL AND WESTERN MASSACHUSETTS

CITY           SKY/WX    TMP DP  RH WIND       PRES   REMARKS
WORCESTER      CLEAR     55  50  83 W10       29.98R
FITCHBURG      CLEAR     57  54  89 N6        29.97R
ORANGE         FOG       51  51 100 CALM      29.97S VSB 1/4
SPRINGFIELD    CLEAR     52  51  95 CALM      29.97R
WESTFIELD      CLEAR     54  52  93 CALM        N/A
NORTH ADAMS    CLEAR     52  50  93 NW5       29.99R
PITTSFIELD     CLEAR     53  50  89 SW3       29.99R
$$

RIZALL-261100-
RHODE ISLAND

CITY           SKY/WX    TMP DP  RH WIND       PRES   REMARKS
PROVIDENCE     PTCLDY    61  56  83 W6        29.99R
NEWPORT        CLEAR     61  57  87 W5        29.98R
BLOCK ISLAND   CLEAR     62  57  83 NW5       30.00R
WESTERLY       CLEAR     61  57  87 CALM      29.99R
$$

CTZALL-261100-
CONNECTICUT

CITY           SKY/WX    TMP DP  RH WIND       PRES   REMARKS
BRADLEY INTL   CLEAR     56  53  90 W5        29.99R
HARTFORD       CLEAR     58  56  93 CALM      29.99R
BRIDGEPORT     NOT AVBL
GROTON         CLEAR     60  57  89 CALM      29.99R
NEW HAVEN      CLEAR     63  55  77 CALM      30.00
CHESTER        FAIR      59  54  82 CALM      30.00R
MERIDEN        CLEAR     54  53  97 CALM      30.00R
WILLIMANTIC    CLEAR     59  55  87 S3        29.99R
OXFORD         CLEAR     54  46  76 CALM      30.01R
$$

MEZ002-015-021-024-NHZ003-005-008-011-012-014-VTZ005-008-261100-
NORTHERN NEW ENGLAND

CITY           SKY/WX    TMP DP  RH WIND       PRES   REMARKS
PORTLAND ME    CLEAR     60  52  74 W6        29.89R
BANGOR ME      MOCLDY    58  56  93 S3        29.87R
CONCORD NH     CLEAR     60  49  66 W5        29.94R
MANCHESTER NH  PTCLDY    60  51  72 SW5       29.93R
NASHUA NH      CLEAR     57  54  89 NW3       29.95R
PORTSMOUTH NH  CLEAR     61  52  74 W3        29.91R
JAFFREY NH     CLEAR     52  52 100 CALM      29.97R
KEENE NH       CLEAR     54  51  90 CALM      29.97R
BURLINGTON VT  PTCLDY    55  50  83 E5        29.94R
MT. WASHINGTON FOG       36  36 100 W56         N/A  VSB 0   WCI  19
$$

NYZ052-076-261100-
EASTERN NEW YORK

CITY           SKY/WX    TMP DP  RH WIND       PRES   REMARKS
ALBANY         PTCLDY    53  52  96 SW5       29.99R
NEW YORK CITY  CLEAR     67  52  58 NW7       30.01R
$$

ANZALL-261100-
MARINE OBSERVATIONS

STATION/POSITION TIME  TEMP    WIND        PRES    VSBY  WAVE
                       AIR SEA DIR/SP/G                  HT/PER
                 (UTC) (F)     (DEG/KT/KT) (MB)    (MI)  (FT/S)
BOSTON BUOY      0950   59 59  260/  8/ 10 1013.6R         1/ 8
BUZZARDS BAY     0900   64     280/  4/  5 1014.7R
NANTUCKET SOUND  0950      63              1014.2R         0
MASS BAY-STELLWA 0904   60 58  270/  8/ 10 1012.6R         1/ 8
ISLE OF SHOALS   0900   62     250/ 16/ 16 1012.5R
S OF BLOCK IS    0955      64                N/A           2/ 7
$$

......................KEY.........................
  SKY/WX - SKY CONDITION/PRESENT WEATHER
  TMP    - TEMPERATURE IN FAHRENHEIT
  DWPT   - DEWPOINT IN FAHRENHEIT
  RH     - RELATIVE HUMIDITY IN PERCENT
  WIND   - DIRECTION AND SPEED IN MPH
  PRES   - MEAN SEA LEVEL PRESSURE IN INCHES OF HG
  WCI    - WIND CHILL INDEX
  VSB    - VISIBILITY IN MILES
  HX     - HEAT INDEX
  TC     - TEMPERATURE IN CELSIUS
  VRB    - VARIABLE WIND DIRECTION
  N/A    - NOT AVAILABLE




USA.gov is the U.S. government's official web portal to all federal, state and local government web resources and services.